GW2321 Weather Reports


time (UTC)temp
F
wind
direction
speed
knots
gust
knots
rain 1hr
in
rain 24hr
in
rain mn
in
humidity
%
barometer
mb
20260506204537 82 242 1.7 6.1 0.00 0.00 0.00 29 1011.7
20260506203046 81 0 2.6 8.7 0.00 0.00 0.00 27 1011.8
20260506201543 81 0 2.6 8.7 0.00 0.00 0.00 31 1011.8
20260506200101 81 212 1.7 5.2 0.00 0.00 0.00 34 1012.0
20260506194539 79 202 1.7 6.1 0.00 0.00 0.00 29 1012.1
20260506193037 79 0 0.9 8.7 0.00 0.00 0.00 29 1012.3
20260506191546 77 228 0.0 8.7 0.00 0.00 0.00 29 1012.5
20260506190045 75 216 0.0 6.1 0.00 0.00 0.00 28 1012.7
20260506184551 76 215 0.0 6.1 0.00 0.00 0.00 30 1012.9
20260506183039 76 193 2.6 7.0 0.00 0.00 0.00 30 1012.9
20260506181539 73 235 0.0 7.0 0.00 0.00 0.00 32 1013.0
20260506180046 73 228 0.9 6.1 0.00 0.00 0.00 30 1013.0
20260506174543 72 217 1.7 7.0 0.00 0.00 0.00 30 1013.1
20260506173046 71 203 2.6 7.0 0.00 0.00 0.00 33 1013.2
20260506171550 68 0 2.6 8.7 0.00 0.00 0.00 31 1013.1
20260506170044 68 0 0.0 2.6 0.00 0.00 0.00 32 1013.4
20260506164544 66 0 0.0 1.7 0.00 0.00 0.00 32 1013.4
20260506163049 64 0 0.0 0.9 0.00 0.00 0.00 34 1013.8
20260506161548 62 0 0.0 1.7 0.00 0.00 0.00 37 1013.8
20260506160043 60 0 0.0 0.9 0.00 0.00 0.00 44 1013.7
20260506154545 57 0 0.0 0.0 0.00 0.00 0.00 47 1013.6
20260506153042 55 0 0.0 0.0 0.00 0.00 0.00 48 1013.9
20260506151538 53 0 0.0 0.0 0.00 0.00 0.00 55 1013.7
20260506150048 50 0 0.0 0.0 0.00 0.00 0.00 58 1013.9
20260506144545 48 0 0.0 0.0 0.00 0.00 0.00 59 1013.8
20260506143042 46 0 0.0 0.0 0.00 0.00 0.00 61 1013.7
20260506141541 45 0 0.0 0.0 0.00 0.00 0.00 60 1013.8
20260506140045 43 0 0.0 0.0 0.00 0.00 0.00 61 1013.9
20260506134607 42 0 0.0 0.0 0.00 0.00 0.00 60 1013.6
20260506133038 42 0 0.0 0.9 0.00 0.00 0.00 60 1013.6
20260506131546 40 0 0.0 0.0 0.00 0.00 0.00 62 1013.7
20260506130045 40 0 0.0 0.0 0.00 0.00 0.00 62 1013.4
20260506124543 40 0 0.0 0.0 0.00 0.00 0.00 63 1013.1
20260506123044 40 0 0.0 0.0 0.00 0.00 0.00 63 1013.0
20260506121539 40 0 0.0 0.0 0.00 0.00 0.00 63 1013.1
20260506120048 40 0 0.0 0.0 0.00 0.00 0.00 64 1013.0
20260506114548 41 0 0.0 0.9 0.00 0.00 0.00 66 1012.8
20260506113043 41 0 0.0 0.0 0.00 0.00 0.00 66 1012.7
20260506111544 42 0 0.0 0.0 0.00 0.00 0.00 66 1012.7
20260506110041 42 0 0.0 0.0 0.00 0.00 0.00 65 1012.9
20260506104541 43 0 0.0 0.0 0.00 0.00 0.00 66 1012.8
20260506103037 43 0 0.0 0.0 0.00 0.00 0.00 65 1012.7
20260506101546 43 0 0.0 0.0 0.00 0.00 0.00 66 1012.7
20260506100036 43 0 0.0 0.0 0.00 0.00 0.00 66 1012.7
20260506094542 43 0 0.0 0.9 0.00 0.00 0.00 65 1012.7
20260506093038 44 0 0.0 0.0 0.00 0.00 0.00 65 1012.8
20260506091541 44 0 0.0 0.0 0.00 0.00 0.00 64 1012.9
20260506090038 44 0 0.0 0.0 0.00 0.00 0.00 63 1012.6
20260506084537 45 0 0.0 0.0 0.00 0.00 0.00 62 1012.5
20260506083037 46 0 0.0 0.0 0.00 0.00 0.00 61 1012.6
20260506081547 46 0 0.0 0.0 0.00 0.00 0.00 61 1012.4
20260506073039 48 0 0.0 0.0 0.00 0.00 0.00 59 1012.2
20260506071548 49 0 0.0 0.9 0.00 0.00 0.00 53 1012.0
20260506061541 50 0 0.0 1.7 0.00 0.00 0.00 54 1012.0
20260506044540 55 0 0.0 2.6 0.00 0.00 0.00 44 1011.2
20260506043038 57 0 0.0 1.7 0.00 0.00 0.00 45 1011.1
20260506041548 60 0 0.0 0.9 0.00 0.00 0.00 34 1011.1
20260506040042 62 0 0.0 0.0 0.00 0.00 0.00 30 1011.0
20260506034542 62 0 0.0 1.7 0.00 0.00 0.00 31 1010.8
20260506033039 64 32 0.9 2.6 0.00 0.00 0.00 31 1010.7
20260506031540 66 68 1.7 3.5 0.00 0.00 0.00 27 1010.8
20260506030044 68 105 1.7 6.1 0.00 0.00 0.00 21 1010.4
20260506024551 69 0 1.7 5.2 0.00 0.00 0.00 21 1010.6
20260506023041 69 52 0.9 4.3 0.00 0.00 0.00 24 1010.7
20260506021538 70 0 0.0 0.0 0.00 0.00 0.00 22 1010.8
20260506020040 71 0 0.0 2.6 0.00 0.00 0.00 23 1010.8
20260506014537 72 0 0.0 1.7 0.00 0.00 0.00 22 1010.9
20260506013043 74 50 0.0 3.5 0.00 0.00 0.00 17 1010.9
20260506011609 74 235 0.0 0.9 0.00 0.00 0.00 16 1010.9
20260506010047 75 0 0.0 2.6 0.00 0.00 0.00 22 1011.1
20260506004557 76 234 0.0 2.6 0.00 0.00 0.00 17 1011.1
20260506003039 76 0 0.0 1.7 0.00 0.00 0.00 18 1011.3
20260506001542 78 0 0.0 4.3 0.00 0.00 0.00 18 1011.1
20260506000111 77 221 0.0 5.2 0.00 0.00 0.00 18 1011.1
20260505234548 78 0 0.0 2.6 0.00 0.00 0.00 17 1011.5
20260505233042 74 0 0.0 7.0 0.00 0.00 0.00 16 1011.4
20260505231540 75 48 0.9 6.1 0.00 0.00 0.00 16 1011.6
20260505230101 74 40 0.9 8.7 0.00 0.00 0.00 15 1011.6
20260505224541 74 103 1.7 8.7 0.00 0.00 0.00 15 1011.9
20260505223044 73 5 3.5 8.7 0.00 0.00 0.00 16 1011.9
20260505221551 73 111 1.7 10.4 0.00 0.00 0.00 16 1012.0
20260505220044 74 115 1.7 7.8 0.00 0.00 0.00 18 1012.2
20260505214539 74 355 2.6 6.1 0.00 0.00 0.00 16 1012.1
20260505213044 74 5 1.7 7.0 0.00 0.00 0.00 15 1012.5
20260505211541 73 0 0.9 10.4 0.00 0.00 0.00 15 1012.6
20260505210044 72 48 4.3 12.2 0.00 0.00 0.00 19 1012.7